Back to catalog

DELTA 1 DEB

AliveSSO
NORAD 7134·DEBRIS·🇺🇸 United States

Launched Nov 6, 1973 from Vandenberg Space Force Base

Loading…

Next Passes (next 24 hours)

TLE

FreshSource: Space-Track

Epoch: Sep 14, 2026, 04:18 UTC

1 07134U 73086CY  26257.17981170 -.00000046  00000-0 -67475-5 0  9991
2 07134 101.8486  32.0034 0012780 123.3688  50.2268 12.52988424411213

Track DELTA 1 DEB in real time with AllMySat

Download on the App Store